Home   Weather   Peterborough   Past weeks

Flag for Canada Past Weather in Peterborough, Ontario, Canada — Yesterday and Last 2 Weeks

Now
37 °F

Low clouds.


Feels Like: 34 °F
Forecast: 34 / 40 °F
Wind: 5 mph from Northwest

Location: Peterborough Airport

Current Time: Jan 21, 2017 at 12:32:17 pm

Latest Report: Jan 21, 2017 at 12:00 pm


Visibility: 9 mi

Pressure: 29.80 "Hg

Humidity: 100%

Dew Point: 37 °F

Location of PeterboroughLocation

Past Weather in Peterborough — Graph

°F

Peterborough Temperature Yesterday

Maximum temperature yesterday: 37 °F (at 1:00 pm)
Minimum temperature yesterday: 34 °F (at 12:00 am)
Average temperature yesterday: 35 °F

High & Low Weather Summary for the Past Weeks

 TemperatureHumidityPressure
High43 °F (Jan 11, 1:05 am)100% (Jan 10, 9:00 am)30.81 "Hg (Jan 10, 9:00 am)
Low-6 °F (Jan 7, 8:00 am)45% (Jan 6, 2:00 pm)29.46 "Hg (Jan 11, 1:05 am)
Average26 °F87%30.12 "Hg
* Reported Jan 6 11:00 am — Jan 21 11:05 am, Peterborough, Weather by CustomWeather, © 2017

Note: Actual official high and low records may vary slightly from our data, if they occured in-between our weather recording intervals... More about our weather records

Advertising

Peterborough Weather History for the Previous 24 Hours

Scroll right to see more
 ConditionsComfort  
Time TempWeatherWind HumidityBarometerVisibility
11:05 am
Sat, Jan 21
37 °FLow clouds.3 mph100%29.81 "Hg9 mi
10:08 am37 °FFog.3 mph100%29.80 "Hg6 mi
10:00 am37 °FFog.2 mph100%29.80 "Hg5 mi
9:00 am36 °FLow clouds.7 mph100%29.82 "Hg8 mi
8:53 am36 °FFog.6 mph100%29.81 "Hg6 mi
8:25 am34 °FFog.2 mph100%29.80 "Hg1 mi
8:00 am34 °FFog.3 mph100%29.80 "Hg1 mi
7:45 am34 °FFog.5 mph100%29.81 "Hg1 mi
7:33 am34 °FFog.3 mph100%29.80 "Hg2 mi
7:00 am34 °FFog.3 mph100%29.81 "Hg1 mi
6:39 am34 °FFog.2 mph100%29.80 "Hg0 mi
6:07 am34 °FFog.2 mph100%29.80 "Hg0 mi
5:49 am34 °FFog.No wind100%29.79 "Hg0 mi
5:10 am34 °FFog.No wind100%29.79 "Hg0 mi
5:00 am34 °FFog.2 mph100%29.78 "Hg0 mi
4:53 am34 °FFog.No wind100%29.78 "Hg0 mi
4:00 am34 °FFog.No wind100%29.79 "Hg1 mi
3:07 am34 °FFog.2 mph100%29.79 "Hg1 mi
2:16 am34 °FLight freezing rain. Fog.2 mph100%29.79 "Hg1 mi
2:00 am34 °FLight rain. Fog.2 mph100%29.78 "Hg1 mi
1:49 am34 °FLight rain. Fog.2 mph100%29.78 "Hg1 mi
1:36 am34 °FFog.3 mph100%29.77 "Hg1 mi
1:13 am34 °FLight rain. Fog.No wind100%29.77 "Hg1 mi
1:00 am34 °FFog.No wind100%29.77 "Hg1 mi
12:33 am34 °FFog.No wind100%29.77 "Hg1 mi
12:08 am34 °FFog.3 mph100%29.77 "Hg2 mi
11:00 pm
Fri, Jan 20
34 °FFog.2 mph100%29.78 "Hg4 mi
10:58 pm34 °FFog.2 mph100%29.78 "Hg4 mi
10:00 pm34 °FFog.2 mph100%29.78 "Hg4 mi
9:28 pm34 °FFog.3 mph100%29.78 "Hg2 mi
9:15 pm34 °FLight freezing rain. Fog.3 mph100%29.78 "Hg2 mi
9:05 pm34 °FLight freezing rain. Fog.2 mph100%29.79 "Hg2 mi
8:16 pm36 °FLight freezing rain. Fog.3 mph93%29.80 "Hg5 mi
8:07 pm36 °FLight rain. Low clouds.3 mph93%29.79 "Hg7 mi
7:00 pm36 °FLow clouds.5 mph93%29.79 "Hg9 mi
6:00 pm36 °FLow clouds.7 mph93%29.78 "Hg9 mi
5:00 pm36 °FLow clouds.7 mph93%29.78 "Hg9 mi
4:00 pm37 °FOvercast.6 mph87%29.78 "Hg9 mi
3:00 pm37 °FOvercast.8 mph87%29.77 "Hg9 mi
2:15 pm37 °FOvercast.7 mph87%29.77 "Hg9 mi
2:00 pm37 °FLow clouds.6 mph93%29.78 "Hg9 mi
1:00 pm37 °FLow clouds.6 mph87%29.79 "Hg9 mi
12:00 pm36 °FLow clouds.6 mph93%29.82 "Hg9 mi
Weather by CustomWeather, © 2017

See weather overviewHow to use our weather pages